Chicopee, MA

10:04 AM EST on February 24, 2018 (GMT -0500)
Westover Air Reserve Base / Metropolitan Airport

Weather History for KCEF - November, 2011

Change the Weather History Date:

Wednesday, November 30, 2011

  Actual Average Record
Temperature  
Mean Temperature 52 °F -  
Max Temperature 62 °F 42 °F 62 °F (2001)
Min Temperature 40 °F 26 °F 9 °F (2013)
Degree Days  
Heating Degree Days 12    
Growing Degree Days 2 (Base 50)    
Moisture  
Dew Point 48 °F    
Average Humidity 84    
Maximum Humidity 100    
Minimum Humidity 52    
Precipitation  
Precipitation 0.10 in - - ()
Sea Level Pressure  
Sea Level Pressure 29.64 in    
Wind  
Wind Speed 14 mph (SSW)    
Max Wind Speed 23 mph    
Max Gust Speed 33 mph    
Visibility 9 miles    
Events Rain    
Averages and records for this station are not official NWS values.
T = Trace of Precipitation, MM = Missing Value Source: NWS Daily Summary

Daily Weather History Graph

Daily Weather History Graph

Search for Another Location

Airport or City:

Trip Planner

Search our weather history database for the weather conditions in past years. The results will help you decide how hot, cold, wet, or windy it might be!

Date:

Astronomy

Nov. 30, 2011 Rise Set
Actual Time 6:57 AM EST 4:19 PM EST
Civil Twilight 6:26 AM EST 4:50 PM EST
Nautical Twilight 5:51 AM EST 5:25 PM EST
Astronomical Twilight 5:18 AM EST 5:59 PM EST
Moon 11:11 AM EST (11/30) 10:17 PM EST (11/30)
Length of Visible Light 10h 23m
Length of Day
9h 21m
Waxing Crescent, 33% of the Moon is Illuminated
Nov 30
Waxing Crescent
Dec 2
First Quarter
Dec 10
Full
Dec 17
Last Quarter
Dec 24
New

Hourly Weather History & Observations

Time (EST) Temp. Windchill Dew Point Humidity Pressure Visibility Wind Dir Wind Speed Gust Speed Precip Events Conditions
12:01 AM 62.6 °F - 60.8 °F 94% 29.62 in 8.0 mi South 15.0 mph 21.9 mph N/A Rain Light Rain
12:03 AM 62.6 °F - 60.8 °F 94% 29.62 in 6.0 mi South 15.0 mph 21.9 mph N/A Rain Rain
12:04 AM 62.6 °F - 60.8 °F 94% 29.62 in 6.0 mi South 15.0 mph 21.9 mph N/A Rain Rain
12:05 AM 62.6 °F - 60.8 °F 94% 29.62 in 5.0 mi South 15.0 mph - N/A Rain Rain
12:06 AM 62.6 °F - 60.8 °F 94% 29.62 in 5.0 mi South 16.1 mph - N/A Rain Rain
12:12 AM 62.6 °F - 60.8 °F 94% 29.61 in 5.0 mi South 13.8 mph - N/A Rain Rain
12:18 AM 62.6 °F - 60.8 °F 94% 29.61 in 6.0 mi SSW 9.2 mph - N/A Rain Light Rain
12:33 AM 60.8 °F - 60.8 °F 100% 29.60 in 10.0 mi South 13.8 mph - N/A   Overcast
12:36 AM 60.8 °F - 59.0 °F 94% 29.60 in 10.0 mi South 15.0 mph - N/A   Overcast
12:43 AM 60.8 °F - 59.0 °F 94% 29.60 in 10.0 mi South 16.1 mph 25.3 mph N/A   Overcast
12:45 AM 60.8 °F - 59.0 °F 94% 29.60 in 10.0 mi South 12.7 mph 25.3 mph N/A   Overcast
12:47 AM 60.8 °F - 59.0 °F 94% 29.60 in 10.0 mi South 15.0 mph 25.3 mph N/A   Overcast
12:50 AM 60.8 °F - 59.0 °F 94% 29.60 in 10.0 mi South 17.3 mph 25.3 mph N/A   Overcast
12:55 AM 60.8 °F - 59.0 °F 94% 29.60 in 10.0 mi South 15.0 mph - 0.07 in   Overcast
1:02 AM 60.8 °F - 59.0 °F 94% 29.59 in 10.0 mi South 17.3 mph 24.2 mph N/A   Overcast
1:09 AM 59.0 °F - 57.2 °F 94% 29.60 in 10.0 mi South 15.0 mph 24.2 mph N/A   Overcast
1:26 AM 59.0 °F - 53.6 °F 82% 29.61 in 10.0 mi SSW 19.6 mph 32.2 mph N/A Rain Light Rain
1:27 AM 59.0 °F - 53.6 °F 82% 29.61 in 10.0 mi SSW 21.9 mph 32.2 mph N/A Rain Light Rain
1:29 AM 59.0 °F - 53.6 °F 82% 29.61 in 10.0 mi SSW 21.9 mph 32.2 mph N/A Rain Light Rain
1:36 AM 57.2 °F - 51.8 °F 82% 29.61 in 10.0 mi SSW 23.0 mph 33.4 mph N/A Rain Light Rain
1:38 AM 57.2 °F - 51.8 °F 82% 29.60 in 10.0 mi SSW 19.6 mph 33.4 mph N/A   Overcast
1:52 AM 57.2 °F - 51.8 °F 82% 29.62 in 10.0 mi SSW 16.1 mph 29.9 mph N/A   Overcast
1:55 AM 56.3 °F - 51.4 °F 84% 29.62 in 10.0 mi SSW 17.3 mph 25.3 mph 0.00 in   Overcast
2:00 AM 55.4 °F - 51.8 °F 88% 29.62 in 10.0 mi SSW 16.1 mph 23.0 mph N/A Rain Light Rain
2:01 AM 55.4 °F - 51.8 °F 88% 29.62 in 10.0 mi SSW 18.4 mph 23.0 mph N/A Rain Light Rain
2:14 AM 55.4 °F - 51.8 °F 88% 29.63 in 10.0 mi SSW 17.3 mph 24.2 mph N/A Rain Light Rain
2:23 AM 55.4 °F - 51.8 °F 88% 29.63 in 5.0 mi SSW 17.3 mph 24.2 mph N/A Rain Light Rain
2:24 AM 53.6 °F - 51.8 °F 94% 29.62 in 5.0 mi SW 17.3 mph 24.2 mph N/A Rain Rain
2:26 AM 53.6 °F - 51.8 °F 94% 29.63 in 5.0 mi SW 16.1 mph 24.2 mph N/A Rain Light Rain
2:28 AM 53.6 °F - 51.8 °F 94% 29.63 in 5.0 mi SSW 12.7 mph 24.2 mph N/A Rain Light Rain
2:29 AM 53.6 °F - 51.8 °F 94% 29.63 in 5.0 mi SSW 11.5 mph - N/A Rain Light Rain
2:30 AM 53.6 °F - 51.8 °F 94% 29.63 in 5.0 mi SSW 11.5 mph - N/A Rain Light Rain
2:33 AM 53.6 °F - 51.8 °F 94% 29.64 in 7.0 mi SSW 15.0 mph 20.7 mph N/A Rain Light Rain
2:50 AM 53.6 °F - 50.0 °F 88% 29.64 in 8.0 mi SSW 15.0 mph - N/A Rain Light Rain
2:55 AM 52.7 °F - 50.0 °F 91% 29.64 in 7.0 mi SSW 12.7 mph - 0.03 in   Drizzle
3:00 AM 51.8 °F - 50.0 °F 94% 29.63 in 7.0 mi SSW 11.5 mph - N/A   Light Drizzle
3:01 AM 51.8 °F - 50.0 °F 94% 29.63 in 7.0 mi SSW 11.5 mph - N/A   Light Drizzle
3:04 AM 51.8 °F - 50.0 °F 94% 29.63 in 6.0 mi South 10.4 mph - N/A Rain Light Rain
3:27 AM 51.8 °F - 50.0 °F 94% 29.62 in 10.0 mi South 10.4 mph - N/A   Overcast
3:34 AM 51.8 °F - 50.0 °F 94% 29.62 in 10.0 mi South 11.5 mph - N/A   Overcast
3:48 AM 51.8 °F - 50.0 °F 94% 29.61 in 10.0 mi South 9.2 mph - N/A   Overcast
3:52 AM 51.8 °F - 50.0 °F 94% 29.62 in 10.0 mi SSW 10.4 mph - N/A   Overcast
3:55 AM 52.0 °F - 50.5 °F 95% 29.62 in 10.0 mi SSW 9.2 mph - 0.00 in   Overcast
4:02 AM 51.8 °F - 50.0 °F 94% 29.62 in 10.0 mi SSW 9.2 mph - N/A   Light Drizzle
4:13 AM 51.8 °F - 50.0 °F 94% 29.62 in 10.0 mi SSW 13.8 mph 18.4 mph N/A   Overcast
4:25 AM 51.8 °F - 50.0 °F 94% 29.61 in 10.0 mi SSW 12.7 mph - N/A   Overcast
4:46 AM 51.8 °F - 50.0 °F 94% 29.60 in 10.0 mi SSW 9.2 mph - N/A   Overcast
4:53 AM 51.8 °F - 50.0 °F 94% 29.60 in 10.0 mi South 10.4 mph - N/A   Mostly Cloudy
4:55 AM 50.9 °F - 49.3 °F 94% 29.60 in 10.0 mi South 10.4 mph - 0.00 in   Mostly Cloudy
5:02 AM 50.0 °F - 48.2 °F 94% 29.60 in 10.0 mi South 10.4 mph - N/A   Scattered Clouds
5:42 AM 50.0 °F - 44.6 °F 82% 29.62 in 10.0 mi SSW 12.7 mph - N/A   Mostly Cloudy
5:44 AM 50.0 °F - 44.6 °F 82% 29.62 in 10.0 mi SSW 15.0 mph - N/A   Scattered Clouds
5:45 AM 50.0 °F - 44.6 °F 82% 29.62 in 10.0 mi SSW 15.0 mph - N/A   Mostly Cloudy
5:49 AM 50.0 °F - 44.6 °F 82% 29.62 in 10.0 mi SSW 13.8 mph - N/A   Scattered Clouds
5:55 AM 49.3 °F - 44.4 °F 83% 29.62 in 10.0 mi SSW 15.0 mph 20.7 mph N/A   Scattered Clouds
6:55 AM 47.3 °F - 42.4 °F 83% 29.63 in 10.0 mi SSW 11.5 mph - N/A   Clear
7:28 AM 48.2 °F - 44.6 °F 87% 29.64 in 10.0 mi South 6.9 mph - N/A   Mostly Cloudy
7:36 AM 48.2 °F - 44.6 °F 87% 29.64 in 10.0 mi SSW 11.5 mph - N/A   Mostly Cloudy
7:55 AM 48.2 °F - 43.3 °F 83% 29.65 in 10.0 mi SSW 10.4 mph - N/A   Mostly Cloudy
8:55 AM 48.9 °F - 42.4 °F 78% 29.65 in 10.0 mi SSW 13.8 mph - N/A   Clear
9:25 AM 50.0 °F - 41.0 °F 71% 29.64 in 10.0 mi SW 16.1 mph 21.9 mph N/A   Mostly Cloudy
9:55 AM 49.6 °F - 40.5 °F 71% 29.65 in 10.0 mi SSW 15.0 mph - N/A   Overcast
10:02 AM 50.0 °F - 39.2 °F 66% 29.65 in 10.0 mi SSW 12.7 mph - N/A   Overcast
10:55 AM 50.4 °F - 40.1 °F 68% 29.65 in 10.0 mi SSW 12.7 mph - N/A   Mostly Cloudy
11:55 AM 51.4 °F - 39.7 °F 64% 29.64 in 10.0 mi SSW 11.5 mph - N/A   Mostly Cloudy
12:55 PM 50.9 °F - 38.8 °F 63% 29.62 in 10.0 mi SW 18.4 mph 21.9 mph N/A   Overcast
1:55 PM 52.2 °F - 36.0 °F 54% 29.64 in 10.0 mi SSW 18.4 mph - N/A   Scattered Clouds
2:55 PM 50.4 °F - 33.4 °F 52% 29.66 in 10.0 mi WSW 16.1 mph - N/A   Mostly Cloudy
3:55 PM 47.3 °F - 32.9 °F 57% 29.67 in 10.0 mi SW 12.7 mph - N/A   Mostly Cloudy
4:55 PM 44.8 °F 40.4 °F 32.9 °F 63% 29.70 in 10.0 mi SSW 8.1 mph - N/A   Partly Cloudy
5:55 PM 46.8 °F - 32.0 °F 57% 29.73 in 10.0 mi WSW 11.5 mph - N/A   Overcast
6:55 PM 46.6 °F - 31.1 °F 55% 29.76 in 10.0 mi WSW 9.2 mph - N/A   Overcast
7:55 PM 46.0 °F 41.4 °F 31.3 °F 56% 29.78 in 10.0 mi WSW 9.2 mph - N/A   Overcast
8:55 PM 45.3 °F 41.6 °F 31.6 °F 59% 29.80 in 10.0 mi WSW 6.9 mph - N/A   Overcast
9:55 PM 45.1 °F 40.8 °F 32.2 °F 60% 29.82 in 10.0 mi WSW 8.1 mph - N/A   Overcast
10:55 PM 43.0 °F 36.8 °F 33.6 °F 70% 29.86 in 10.0 mi WNW 11.5 mph - N/A   Overcast
11:55 PM 40.3 °F 34.4 °F 29.3 °F 65% 29.89 in 10.0 mi WNW 9.2 mph - N/A   Scattered Clouds